{"data":{"norad_id":49001,"epoch":"2026-05-25T05:02:45.720096Z","epoch_age_seconds":54101,"freshness":"FRESH","line1":"1 49001U 21060AL  26145.21025139  .00000042  00000+0  76361-4 0  9996","line2":"2 49001  87.9103 233.3416 0001938  96.3726 263.7625 13.16593012236597","mean_motion":13.16593012,"eccentricity":0.0001938,"inclination_deg":87.9103,"raan_deg":233.3416,"arg_perigee_deg":96.3726,"mean_anomaly_deg":263.7625,"bstar":7.6361e-5,"rev_number":23659,"period_min":109.37320697248,"perigee_km":1196.293233932,"apogee_km":1199.2296521685,"semimajor_km":7575.8984430502,"source":"CELESTRAK","updated_at":"2026-05-25T13:38:22.479822Z"}}